Regional Weather Roundup
Issued by NWS

Home | Current Version | Previous Version | Graphics & Text | Print | Product List | Glossary On
Versions: 1 2 3 4 5 6 7 8 9 10 11 12 13 14 15 16 17 18 19 20 21 22 23 24 25 26 27 28 29 30 31 32 33 34 35 36 37 38 39 40 41 42 43 44 45 46 47 48 49 50
918
ASUS43 KLSX 251110
RWRMO

WEATHER SUMMARY FOR MISSOURI
NATIONAL WEATHER SERVICE SPRINGFIELD MO
600 AM CDT SUN SEP 25 2016

NOTE: "FAIR" INDICATES FEW OR NO CLOUDS BELOW 12,000 FEET WITH NO
       SIGNIFICANT WEATHER AND/OR OBSTRUCTIONS TO VISIBILITY.
       CURRENT SKY AND/OR WEATHER CONDITIONS ARE NOT AVAILABLE FOR
       CHILLICOTHE AND FARMINGTON.

MOZ001>031-035>038-043-044-053-054-251200-
...NORTHERN AND WESTERN MISSOURI...

CITY           SKY/WX    TMP DP  RH WIND       PRES   REMARKS
KANSAS CTY INT CLOUDY    66  64  93 W3        30.03R
KANSAS C DTWN  PTCLDY    69  66  90 SW5       30.02R
LEE`S SUMMIT   CLOUDY    69  65  86 W5        30.04R
ST JOSEPH      CLOUDY    68  67  96 W6        30.02S
CHILLICOTHE      N/A     69  66  90 CALM      30.03R
KIRKSVILLE     CLOUDY    68  66  93 S5        30.01S

$$
MOZ066>068-077>081-088>096-101>105-251200-
...SOUTHWEST MISSOURI...

CITY           SKY/WX    TMP DP  RH WIND       PRES   REMARKS
SPRINGFIELD    PTCLDY    68  64  87 CALM      30.07R
JOPLIN         PTCLDY    69  66  90 CALM      30.08
BRANSON        PTCLDY    68  66  94 CALM      30.09R

$$
MOZ032>034-039>042-045>050-055>058-069>072-251200-
...CENTRAL MISSOURI...

CITY           SKY/WX    TMP DP  RH WIND       PRES   REMARKS
COLUMBIA       CLOUDY    71  68  90 S5        30.05R
JEFFERSON CITY MOCLDY    72  68  87 CALM      30.04R
ROLLA          CLEAR     68  65  90 SW6       30.07R
SEDALIA        PTCLDY    70  67  90 SW3       30.05R
WHITEMAN AFB   PTCLDY    68  68 100 SW5       30.02S
OSAGE BEACH    MOCLDY    68  66  93 CALM      30.06S

$$
MOZ051-052-059>065-251200-
...EAST CENTRAL MISSOURI...

CITY           SKY/WX    TMP DP  RH WIND       PRES   REMARKS
ST LOUIS INTL  CLEAR     76  67  73 S6        30.05S
SPIRIT OF STL  CLEAR     67  67 100 CALM      30.04R FOG
ST CHARLES     CLEAR     69  68  96 E5        30.04S

$$
MOZ072>076-082>087-097>100-106>115-251200-
...SOUTH CENTRAL AND SOUTHEAST MISSOURI...

CITY           SKY/WX    TMP DP  RH WIND       PRES   REMARKS
CAPE GIRARDEAU PTCLDY    66  64  93 CALM      30.05S FOG
FARMINGTON     CLEAR     66  65  96 CALM      30.08S
WEST PLAINS    CLEAR     66  63  90 CALM      30.10R

$$




USA.gov is the U.S. government's official web portal to all federal, state and local government web resources and services.